Regional Weather Roundup
Issued by NWS

Home | Current Version | Previous Version | Text Only | Print | Product List | Glossary Off
Versions: 1 2 3 4 5 6 7 8 9 10 11 12 13 14 15 16 17 18 19 20 21 22 23 24 25 26 27 28 29 30 31 32 33 34 35 36 37 38 39 40 41 42 43 44 45 46 47 48 49 50

000
ASUS44 KMEG 231510
RWRTN
TENNESSEE HOURLY STATE WEATHER ROUNDUP
NATIONAL WEATHER SERVICE MEMPHIS TN
1000 AM CDT WED AUG 23 2017

TNZ002-004-019-021-049-052-054-088>092-231600-
WEST TENNESSEE

CITY           SKY/WX    TMP DP  RH WIND       PRES   REMARKS
MEMPHIS INTL   CLOUDY    79  69  71 E6        30.07R
NWS MEMPHIS      N/A     79 N/A N/A MISG        N/A
JACKSON        MOSUNNY   79  67  66 NE9       30.07R
DYERSBURG      CLOUDY    76  66  71 NE7       30.08S
SOMERVILLE     MOSUNNY   79  70  73 VRB6      30.06R
COVINGTON      PTSUNNY   75  66  73 NE8       30.07S
BOLIVAR        PTSUNNY   79  70  73 CALM      30.05R
PARIS          SUNNY     75  63  64 NE8       30.07R
HUNTINGDON     SUNNY     75  66  73 NE8       30.06S
LEXINGTON      MOSUNNY   75  70  83 NE7       30.06R
SELMER         MOSUNNY   75  70  83 NE8       30.05R
SAVANNAH       PTSUNNY   79  72  78 N6        30.04S
$$

TNZ008-025-027-028-033-062-065-066-231600-
NORTH MIDDLE TENNESSEE

CITY           SKY/WX    TMP DP  RH WIND       PRES   REMARKS
NASHVILLE      MOSUNNY   77  66  68 CALM      30.05S
PORTLAND       SUNNY     73  64  73 N7        30.04S
CLARKSVILLE    SUNNY     75  62  64 VRB3      30.06S
SMYRNA         MOSUNNY   77  68  73 VRB3      30.05S
COOKEVILLE     MOSUNNY   75  66  73 NW6       30.04R
GALLATIN       MOSUNNY   75  66  73 CALM      30.06S
CROSSVILLE     PTSUNNY   72  63  73 NW8       30.07R
$$

TNZ061-075-076-078-094-096-097-231600-
SOUTH MIDDLE TENNESSEE

CITY           SKY/WX    TMP DP  RH WIND       PRES   REMARKS
FAYETTEVILLE   MOSUNNY   75  68  78 N8        30.04R
TULLAHOMA        N/A     75  66  73 NW9       30.06R
MCMINNVILLE      N/A     75  70  83 N9        30.05R
COLUMBIA       MOSUNNY   77  68  73 N7        30.04R
SHELBYVILLE    MOSUNNY   75  70  83 N6        30.04S
$$

TNZ017-018-042-046-047-231600-
NORTHEAST TENNESSEE

CITY           SKY/WX    TMP DP  RH WIND       PRES   REMARKS
TRI CITIES     CLOUDY    77  68  73 VRB3      30.01R
ELIZABETHTON   CLOUDY    72  68  88 SW6       30.01S FOG
$$

TNZ012-013-036-069-073-074-231600-
CENTRAL EAST TENNESSEE

CITY           SKY/WX    TMP DP  RH WIND       PRES   REMARKS
KNOXVILLE      PTSUNNY   79  68  69 VRB6      29.99S
DOWNTOWN KNOXV CLOUDY    79  70  73 CALM      29.99R
GATLINBURG     CLOUDY    75  68  78 VRB3      30.00R
MORRISTOWN     MOSUNNY   77  66  69 N8        30.00S
JACKSBORO      SUNNY     77  66  69 CALM      30.04S
$$

TNZ083-085-099-231600-
SOUTHEAST TENNESSEE

CITY           SKY/WX    TMP DP  RH WIND       PRES   REMARKS
CHATTANOOGA    PTSUNNY   81  68  64 N8        30.01R
DAYTON         PTSUNNY   82  70  65 VRB3      29.99S
$$

SKY/WX REPORTED AS FAIR MEANS FEW OR NO CLOUDS BELOW
12 THOUSAND FEET.





USA.gov is the U.S. government's official web portal to all federal, state and local government web resources and services.